Voltar ao catálogo

STARLINK-33728

AtivoComunicaçõesVLEO
NORAD 63715·PAYLOAD·🇺🇸 United States

Lançado Apr 28, 2025 de Vandenberg Space Force Base

Loading…

Próximas Passagens (próximas 24 horas)

TLE

AtualizadoSource: CelesTrak SupGP

Época: Sep 15, 2026, 03:15 UTC

1 63715C 25087U   26258.13590278 -.00019576  00000+0 -57827-3 0  2581
2 63715  53.1607  58.7522 0001110  76.9914  28.1535 15.34406618    17

Acompanhe STARLINK-33728 em tempo real com AllMySat

Download on the App Store